Regional Weather Roundup
Issued by NWS

Home | Current Version | Previous Version | Graphics & Text | Print | Product List | Glossary On
Versions: 1 2 3 4 5 6 7 8 9 10 11 12 13 14 15 16 17 18 19 20 21 22 23 24 25 26 27 28 29 30 31 32 33 34 35 36 37 38 39 40 41 42 43 44 45 46 47 48 49 50
000
ASUS44 KMEG 021100
RWRTN
TENNESSEE HOURLY STATE WEATHER ROUNDUP
NATIONAL WEATHER SERVICE MEMPHIS TN
500 AM CST MON MAR 02 2015

TNZ002-004-019-021-049-052-054-088>092-021200-
WEST TENNESSEE

CITY           SKY/WX    TMP DP  RH WIND       PRES   REMARKS
MEMPHIS INTL   CLOUDY    35  30  82 NE12      30.42R WCI  27
NWS MEMPHIS      N/A     34 N/A N/A MISG        N/A
JACKSON        CLOUDY    33  29  85 NE10      30.45R WCI  25
DYERSBURG      CLOUDY    30  16  55 NE18      30.49F WCI  18
UNION CITY     CLEAR     28  25  86 N12       30.49R WCI  18
PARIS          CLOUDY    27  21  80 NE16      30.48R WCI  14
LEXINGTON      CLOUDY    34  30  86 N12       30.44R WCI  25
SAVANNAH       CLOUDY    36  36 100 N10       30.42R WCI  28
$$

TNZ008-025-027-028-033-062-065-066-021200-
NORTH MIDDLE TENNESSEE

CITY           SKY/WX    TMP DP  RH WIND       PRES   REMARKS
NASHVILLE      CLOUDY    33  30  88 N10       30.46R WCI  25
CLARKSVILLE    CLOUDY    30  27  88 N10       30.48R WCI  21
COOKEVILLE     CLOUDY    36  36 100 N7        30.39R WCI  30
CROSSVILLE     CLOUDY    36  34  92 N12       30.35R FOG     WCI  28
$$

TNZ061-075-076-078-094-096-097-021200-
SOUTH MIDDLE TENNESSEE

CITY           SKY/WX    TMP DP  RH WIND       PRES   REMARKS
FAYETTEVILLE   CLOUDY    36  36 100 N14         N/A  WCI  27
TULLAHOMA      CLOUDY    36  36 100 N9        30.38R WCI  29
WINCHESTER     CLOUDY    39  39 100 N7        30.36R WCI  34
COLUMBIA       CLOUDY   N/A N/A N/A N9        30.41R
SHELBYVILLE    CLOUDY    36  36 100 N12       30.43R WCI  27
$$

TNZ017-018-042-046-047-021200-
NORTHEAST TENNESSEE

CITY           SKY/WX    TMP DP  RH WIND       PRES   REMARKS
TRI CITIES     RAIN      42  42 100 SW5       30.28R VSB 3/4
ELIZABETHTON   HVY RAIN  43  43 100 CALM      30.28R FOG
$$

TNZ012-013-036-069-073-074-021200-
CENTRAL EAST TENNESSEE

CITY           SKY/WX    TMP DP  RH WIND       PRES   REMARKS
KNOXVILLE      LGT RAIN  46  45  96 W7        30.32R FOG
OAK RIDGE      CLOUDY    44  42  93 NE3       30.34R
GATLINBURG     CLOUDY    45  45 100 N9        30.31R
$$

TNZ083-085-099-021200-
SOUTHEAST TENNESSEE

CITY           SKY/WX    TMP DP  RH WIND       PRES   REMARKS
CHATTANOOGA    LGT RAIN  47  45  93 NE3       30.32R FOG
$$

SKY/WX REPORTED AS FAIR MEANS FEW OR NO CLOUDS BELOW
12 THOUSAND FEET.



USA.gov is the U.S. government's official web portal to all federal, state and local government web resources and services.